Tracking 17631 objects as of 4-May-2016
HD Live streaming from Space Station
objects crossing your sky now

COSMOS 1481 DEB

Track COSMOS 1481 DEB now!


NORAD ID: 14192
Int'l Code: 1983-070E
Perigee: 1,921.5 km
Apogee: 38,556.9 km
Inclination: 67.2 °
Period: 720.0 minutes
Semi major axis: 26610 km
RCS: 2.531 m2 (large)
Launch date: July 8, 1983
Source: Commonwealth of Independent States (former USSR) (CIS)
Launch site: PLESETSK MISSILE AND SPACE COMPLEX (PKMTR)

Note: This is SATELLITE DEBRIS
Your satellite tracking list
Your tracking list is empty





NASA's NSSDC Master Catalog

Two Line Element Set (TLE):
1 14192U 83070E   16123.60650863 -.00000772 +00000-0 +00000-0 0  9999
2 14192 067.2103 125.8007 6883703 010.4980 078.9588 02.03148447164513
Source of the keplerian elements: AFSPC

N2YO: 868